Location: Asheville, NC
(35.6000°N, 82.5500°W)
Time: 18:47:45
(UTC-05:00)

Envisat - Pass Details

Date: 12 February 2018
Orbit: 764 x 766 km, 98.2° (Epoch: 17 February)

Event Time Altitude Azimuth Distance (km) Brightness Sun altitude
Exits shadow 21:08:06 14° 226° (SW) 2,000 5.4 -36.8°
Maximum altitude 21:10:50 22° 265° (W) 1,642 5.2 -37.3°
Drops below altitude 10° 21:14:41 10° 315° (NW) 2,302 6.0 -38.1°
Sets 21:17:31 0° 331° (NNW) 3,233 6.7 -38.7°
